Volver al catálogo

ELECTRON KICK STAGE R/B

ActivoVLEO
NORAD 60420·ROCKET BODY·🇺🇸 United States

Lanzado Aug 11, 2024 desde Rocket Lab Launch Complex 1

Loading…

Próximos Pases (próximas 24 horas)

TLE

ActualizadoSource: Space-Track

Época: Sep 14, 2026, 08:55 UTC

1 60420U 24142B   26257.37203208  .00002186  00000-0  22711-3 0  9995
2 60420  53.0051  12.2605 0010706  11.6810 348.4419 14.93853581113886

Sigue ELECTRON KICK STAGE R/B en tiempo real con AllMySat

Download on the App Store